RH
17 21 22 17 16 15 15 16 16 14 12 12 13 11 9 9 10 10 8 8 10 11 26 27 34 35 37 41 45 46 51 56 53 52 54 52 50 47 65 65 67 68 70 80
18 23 16 15 16 16 15 17 19 16 11 12 12 12 10 10 10 9 8 12 25 27 29 31 33 36 42 43 46 47 47 51 52 51 51 55 57 55 55 60 66 66 70 72
24 19 14 15 15 16 17 19 20 16 13 11 13 15 13 10 10 9 16 24 30 34 35 35 36 41 44 46 47 44 47 49 53 57 52 51 52 51 52 52 54 67 66 69
18 14 15 16 15 15 20 14 14 15 18 21 13 22 16 13 12 12 31 38 37 36 36 36 38 41 44 46 49 50 50 51 50 56 58 64 64 66 61 60 53 60 66 65
21 16 15 15 16 15 16 14 17 17 20 22 20 21 19 16 17 43 40 39 38 38 40 41 42 43 43 47 50 54 55 52 54 56 61 62 67 66 62 62 62 61 63 69
14 10 13 14 14 14 14 17 18 19 22 34 23 22 21 31 41 44 40 39 42 43 43 44 44 46 48 50 54 57 58 56 57 60 62 65 67 67 72 72 71 67 71 69
18 17 13 13 18 17 17 24 40 41 40 40 21 22 50 43 42 44 47 47 47 48 50 52 53 55 56 57 59 59 60 62 61 63 65 65 67 70 71 74 75 74 71 75
26 31 19 16 19 23 22 22 38 45 47 38 22 27 45 37 40 46 46 48 50 53 56 59 61 60 63 63 62 66 70 71 66 68 68 68 70 72 70 70 74 74 73 69
31 27 14 16 17 19 25 30 19 34 30 42 29 21 44 51 54 52 52 53 59 60 63 66 64 68 70 70 72 73 78 76 76 77 78 77 76 76 77 76 76 77 74 68
27 40 21 19 15 18 23 20 43 37 54 53 31 34 86 87 74 66 66 65 62 65 70 74 78 80 78 78 81 85 83 87 87 84 85 82 82 80 79 80 82 82 78 76
20 26 27 22 24 23 25 34 32 32 36 55 63 76 94 93 87 79 66 60 72 74 80 89 94 87 91 89 93 93 90 94 92 88 87 87 86 86 85 87 87 85 83 80
24 35 47 34 20 16 18 23 28 62 55 39 49 80 72 81 75 63 62 60 60 72 80 95 99 98 99 99 99 99 97 96 98 96 86 88 88 87 89 91 93 91 86 81
28 39 52 36 31 22 23 31 32 39 60 63 77 86 71 67 63 65 70 68 66 75 85 89 94 96 97 96 99 99 98 97 99 98 93 89 91 91 92 91 91 91 92 94
48 47 65 55 52 45 69 79 44 45 63 54 67 94 82 73 70 73 74 74 79 89 92 89 90 94 95 96 99 98 97 98 99 99 97 92 94 93 92 90 88 90 89 91
43 56 66 52 38 32 43 47 39 68 52 73 84 89 84 82 84 89 80 83 83 89 86 90 94 94 88 90 95 97 96 96 98 97 97 98 97 89 87 88 88 87 92 96
41 61 76 78 45 46 59 56 46 66 73 84 84 76 74 80 88 83 87 89 89 91 88 87 82 75 82 80 90 88 95 96 97 96 98 98 99 93 88 88 89 92 92 92
65 86 74 72 49 55 74 81 79 73 62 61 76 75 82 88 85 90 89 90 91 79 75 73 74 76 79 72 73 74 74 82 88 94 95 96 96 97 98 94 90 93 94 90
91 89 67 78 68 83 86 63 57 67 71 81 72 81 80 79 88 91 90 84 75 74 74 74 76 73 76 63 67 64 62 70 79 82 86 88 94 96 97 97 94 96 96 94
78 80 88 87 64 77 73 67 71 83 86 64 70 76 74 74 74 88 71 71 80 84 83 88 82 74 81 79 70 69 73 72 76 78 81 80 84 88 89 93 95 97 96 96
66 76 90 70 92 86 71 53 48 56 89 64 60 64 68 71 92 94 76 71 76 86 87 88 88 80 88 89 77 86 86 85 86 87 78 78 76 82 88 91 91 88 89 95
85 92 90 74 82 79 50 48 46 87 91 64 57 62 69 79 88 89 75 74 72 84 86 86 89 92 91 88 85 88 86 90 87 82 83 79 80 82 82 84 86 86 86 85
70 80 77 70 83 83 46 50 72 82 69 69 82 91 96 94 91 88 86 84 78 81 86 88 91 90 88 85 85 85 89 86 84 83 81 86 84 83 83 83 85 85 85 87
74 72 86 91 87 72 68 79 66 61 76 81 83 82 88 90 89 84 79 68 74 82 84 84 92 90 88 83 82 82 82 88 82 82 83 81 87 85 84 85 85 83 84 86
64 57 68 73 75 72 69 60 60 65 80 73 73 76 77 87 84 83 71 61 58 55 61 56 67 84 86 86 79 80 79 77 85 79 81 81 79 90 86 83 84 84 85 86
72 62 68 84 75 69 70 79 77 76 76 74 72 74 79 76 77 76 76 67 64 63 61 57 56 53 64 64 70 72 71 72 73 77 77 78 74 78 87 89 84 85 83 76
63 94 81 89 72 70 87 87 75 77 78 69 70 68 63 63 65 56 47 35 29 32 30 30 34 37 40 46 54 52 54 58 64 67 67 71 72 73 72 74 80 69 73 67
Wind_Speed
13 12 14 17 17 20 20 20 20 18 18 20 20 21 21 16 17 18 16 16 17 8 12 12 11 12 13 14 15 15 15 14 12 10 10 10 6 9 8 9 11 12 13 16
15 17 19 17 17 19 21 19 19 21 21 19 21 20 20 18 20 23 22 8 16 14 13 13 13 13 14 13 13 15 14 13 11 11 11 11 11 10 12 8 13 14 14 15
20 15 16 10 12 15 20 18 20 22 21 20 18 23 21 23 21 15 11 14 15 14 13 15 16 15 15 15 15 15 16 15 13 15 12 11 12 11 10 9 10 14 17 17
17 17 19 20 19 17 20 17 21 22 17 16 18 17 20 22 21 21 18 16 12 13 15 16 16 15 14 14 15 16 17 17 14 15 13 15 12 13 12 11 12 10 17 18
15 12 14 17 15 16 21 15 14 16 15 17 28 14 17 21 17 14 14 12 13 15 16 16 16 17 17 16 15 16 16 17 18 17 15 12 14 12 12 13 15 14 13 13
23 18 14 12 12 13 10 11 15 15 14 15 22 18 17 4 10 12 10 13 13 14 14 15 16 17 16 16 15 15 18 16 18 18 18 16 16 16 14 15 14 12 9 12
16 19 16 15 12 13 13 9 9 9 10 14 19 17 14 15 12 12 11 12 12 13 14 16 18 18 18 18 18 16 17 18 18 18 17 18 17 17 17 17 14 15 12 10
10 11 7 5 13 11 15 13 8 16 14 17 20 14 7 14 15 13 11 11 12 15 16 18 19 18 19 19 19 18 18 18 17 18 17 16 17 12 14 16 15 14 13 12
9 13 5 5 3 4 7 12 14 17 14 14 12 19 11 15 13 13 13 15 16 17 17 17 18 17 17 18 19 18 18 18 17 17 16 15 15 17 16 19 17 15 19 15
3 12 12 16 14 8 12 11 10 5 8 13 10 5 3 9 11 12 12 13 13 14 14 14 15 16 15 16 16 17 17 17 17 16 14 13 15 16 17 16 19 19 21 21
5 9 11 14 12 14 11 13 11 11 10 11 14 2 3 4 6 9 10 11 11 14 13 13 13 14 14 14 15 16 16 16 16 16 14 14 12 12 12 13 17 20 20 20
5 4 10 17 15 15 16 15 15 10 10 11 10 4 6 3 3 7 9 11 14 14 15 13 13 15 15 16 14 14 16 17 16 15 14 14 13 13 13 13 14 10 18 18
2 5 7 7 12 13 14 13 15 10 8 15 11 1 5 3 5 8 9 13 13 15 15 15 14 14 15 16 14 15 15 17 16 15 15 16 14 14 15 15 15 17 18 17
4 5 7 11 6 9 6 11 11 12 9 12 9 3 4 3 5 7 10 12 12 12 14 15 14 14 15 16 14 16 17 17 17 16 17 18 18 17 14 14 19 19 19 22
4 8 7 11 17 17 16 15 13 10 12 10 5 6 5 4 6 7 9 10 11 13 15 15 14 14 16 17 17 16 17 18 17 18 20 19 16 15 15 20 21 20 22 25
9 7 4 11 17 18 17 16 17 12 8 10 5 4 8 8 7 8 9 9 10 12 14 14 15 17 18 18 18 16 17 17 16 17 17 17 16 18 18 23 23 24 25 23
9 5 3 7 10 4 11 8 11 8 7 7 11 4 12 9 7 7 7 8 9 12 13 14 15 15 16 17 17 17 17 17 19 18 19 19 19 19 22 21 21 22 20 19
5 4 6 8 6 10 3 2 3 6 3 7 11 13 11 11 9 8 7 7 9 11 12 13 13 13 14 15 15 15 16 17 18 19 19 19 19 20 20 20 20 22 17 20
7 7 5 5 8 1 5 6 7 8 6 9 13 14 15 15 13 9 7 8 8 8 8 8 10 11 12 14 14 14 15 17 17 18 18 19 19 19 20 20 20 20 15 18
12 9 7 7 6 4 5 9 8 6 6 12 15 16 17 15 6 5 7 7 8 7 6 8 9 11 12 13 13 13 15 16 18 17 18 17 17 19 19 19 19 16 13 14
10 7 14 11 8 2 7 7 3 5 4 13 14 13 13 8 5 12 9 8 8 6 7 7 7 9 10 10 11 13 13 16 13 13 13 17 18 17 17 15 15 15 15 16
12 8 8 9 7 10 4 7 5 4 8 10 12 13 17 15 12 9 8 6 5 5 5 5 5 7 7 9 10 11 12 9 10 10 13 12 15 13 13 17 15 16 14 14
6 1 2 3 4 4 2 4 7 8 11 13 15 15 17 15 12 10 9 8 6 5 2 3 3 5 6 8 8 10 10 7 8 10 10 12 10 12 13 15 15 13 15 14
3 1 1 5 8 6 4 5 8 10 11 13 15 15 15 15 12 9 8 7 6 6 5 5 5 5 5 5 8 9 8 9 5 10 10 10 11 10 11 9 10 12 12 12
2 6 6 4 6 7 4 7 11 12 13 14 14 13 13 14 12 10 8 7 6 6 4 4 5 7 7 9 8 9 10 10 9 8 10 10 9 10 7 8 8 9 11 13
6 3 5 2 12 6 13 11 14 13 12 14 15 15 14 14 12 11 10 8 8 7 7 8 9 9 10 10 11 11 12 13 11 10 8 9 9 9 9 8 6 15 16 19
Wind_Direction
226 230 239 252 249 258 275 284 286 288 296 297 288 284 279 296 283 279 276 263 232 211 66 49 36 21 8 357 347 343 335 331 330 322 317 308 277 277 227 222 226 220 200 193
239 249 245 260 282 286 284 285 286 290 284 280 283 293 289 278 276 270 265 287 50 42 26 20 18 14 8 351 341 330 322 325 323 318 315 314 305 293 301 264 214 226 205 201
256 263 280 242 246 281 283 276 272 275 293 291 290 276 276 275 293 293 105 76 56 34 15 12 4 4 359 347 338 331 325 328 326 317 307 301 302 293 281 271 270 214 220 209
267 273 279 270 281 288 264 278 290 297 305 288 296 291 297 287 294 301 76 59 35 22 13 4 0 350 346 338 341 336 331 326 316 316 303 300 299 295 293 297 296 267 210 220
248 273 283 258 272 278 287 309 303 301 289 296 275 278 285 287 280 66 63 47 25 17 8 356 350 349 341 343 338 333 328 320 314 312 309 299 289 292 296 296 292 288 285 232
265 269 263 295 298 294 316 300 289 276 268 262 273 280 274 3 64 74 49 41 27 8 355 351 348 344 340 338 334 330 323 320 316 309 305 297 291 285 287 289 289 285 288 277
253 253 242 233 259 274 256 256 276 275 258 258 272 278 66 93 83 59 38 28 17 3 1 349 348 347 339 336 333 327 327 316 311 301 300 297 292 288 280 278 280 279 275 278
275 270 258 243 219 260 289 291 283 290 288 295 310 292 93 98 67 48 28 31 13 4 1 356 352 346 343 336 331 330 324 316 311 303 298 296 291 282 276 268 270 274 269 263
278 258 55 60 2 260 271 274 288 277 287 290 273 256 86 47 38 24 10 13 9 10 5 356 351 351 342 337 333 329 327 321 312 307 299 289 283 275 269 268 265 267 269 262
295 280 267 270 249 223 264 287 296 259 268 256 262 317 64 14 5 4 7 9 12 12 5 359 359 347 339 336 332 329 329 322 315 311 303 292 284 274 265 261 258 256 261 266
256 252 270 279 267 255 243 243 237 261 268 282 291 321 83 30 2 351 358 1 21 19 11 7 353 340 334 332 335 337 334 329 330 324 315 311 310 306 295 271 271 243 251 259
250 281 279 274 270 241 249 257 263 223 250 257 280 284 82 89 19 6 7 8 16 17 10 358 352 344 342 341 336 346 346 344 339 332 339 345 346 349 348 339 329 353 244 265
191 237 280 268 229 245 256 263 261 255 247 269 275 290 126 96 48 37 16 18 13 10 4 360 355 351 347 342 345 356 351 351 348 352 358 4 358 8 12 5 14 28 42 45
80 249 260 273 310 290 283 276 262 251 251 269 267 111 152 75 45 32 27 20 14 7 7 1 355 352 345 351 352 1 359 357 356 4 11 14 11 14 18 26 35 33 41 45
231 251 266 271 276 275 280 280 276 261 270 273 331 2 130 97 71 50 33 22 13 9 13 1 356 354 354 360 357 4 5 1 3 9 16 17 13 21 28 40 39 39 39 46
204 242 322 296 269 256 255 251 258 256 249 262 254 259 120 108 83 57 41 27 19 12 13 3 4 3 1 7 1 7 8 6 7 14 19 16 18 23 30 42 38 40 39 47
229 196 250 260 294 296 262 262 235 252 243 257 255 118 136 119 89 56 46 39 24 17 14 6 6 9 1 11 0 8 12 8 12 15 16 16 21 22 31 39 41 46 39 40
179 179 251 281 274 243 69 8 197 187 163 143 122 142 136 119 106 84 60 46 33 21 15 9 2 11 5 5 9 7 11 15 19 18 17 17 20 24 27 32 35 49 27 40
169 191 249 253 256 113 181 200 167 167 176 172 144 136 135 133 126 88 74 67 50 30 18 18 5 17 10 2 15 11 13 17 17 23 19 21 20 25 26 27 30 39 30 41
180 207 255 284 292 291 73 141 170 180 200 171 154 157 155 164 217 118 99 77 65 45 28 21 12 10 14 4 10 14 19 16 20 15 22 19 28 30 26 23 26 31 31 39
188 205 226 239 245 179 117 136 156 215 115 167 162 161 168 165 70 122 113 89 80 73 44 25 13 18 12 4 9 20 21 18 11 16 21 27 26 32 30 29 28 28 33 39
183 191 205 227 236 234 137 151 230 112 128 117 90 103 102 114 114 113 115 103 80 64 62 32 23 19 12 14 18 20 20 10 7 16 24 36 32 32 32 29 28 30 33 36
200 313 79 20 32 85 37 75 111 135 116 124 119 118 121 124 130 137 129 118 109 91 55 97 54 16 10 22 19 23 8 354 16 19 33 26 46 35 37 38 31 30 29 29
100 192 154 180 141 138 108 108 113 111 115 117 126 130 133 129 131 131 126 113 98 86 61 53 77 59 16 15 24 10 8 4 20 31 22 34 31 56 34 42 45 40 35 34
70 161 127 80 132 138 172 119 118 109 112 124 128 129 132 133 135 127 125 128 133 135 129 101 74 61 56 33 29 24 14 12 17 35 34 29 35 32 69 58 54 58 52 51
173 145 189 206 169 178 155 144 130 131 138 142 138 139 138 138 140 147 148 141 116 97 81 72 61 53 46 40 27 28 26 18 23 20 33 30 28 29 32 33 51 75 76 63